EWG03G EDDL-EDDH

Flight info

Callsign EWG03G
Flight time 0h 46m
Altitude 31000
Route MEVEL4T MEVEL DCT EVDAL DCT BASUM DCT RIBSO RIBSO3P
Aircraft A320/M-SDE3FGHIRWY/LB1

Departure

Time 2026-05-04 19:22
Airport Düsseldorf Airport (EDDL)

Arrival

Time 2026-05-04 20:08
Airport Hamburg Helmut Schmidt Airport (EDDH)
Time Latitude Longitude Altitude Speed Heading
2026-05-04 18:20 51.28488 6.77057 115 ft 0 kts 322°
2026-05-04 19:08 51.28478 6.77069 113 ft 4 kts 317°
2026-05-04 19:08 51.28461 6.77101 115 ft 4 kts 294°
2026-05-04 19:08 51.28455 6.77141 116 ft 4 kts 264°
2026-05-04 19:08 51.28463 6.77181 113 ft 4 kts 239°
2026-05-04 19:09 51.28478 6.77216 113 ft 4 kts 230°
2026-05-04 19:09 51.28492 6.77243 113 ft 4 kts 243°
2026-05-04 19:09 51.28493 6.77243 113 ft 0 kts 253°
2026-05-04 19:11 51.28492 6.77239 113 ft 3 kts 249°
2026-05-04 19:11 51.28450 6.77153 117 ft 14 kts 232°
2026-05-04 19:11 51.28387 6.77022 118 ft 16 kts 232°
2026-05-04 19:11 51.28346 6.76907 116 ft 10 kts 275°
2026-05-04 19:12 51.28391 6.76845 114 ft 8 kts 321°
2026-05-04 19:12 51.28490 6.76781 118 ft 11 kts 53°
2026-05-04 19:12 51.28565 6.76941 117 ft 25 kts 53°
2026-05-04 19:13 51.28685 6.77190 117 ft 29 kts 51°
2026-05-04 19:13 51.28797 6.77416 118 ft 15 kts 52°
2026-05-04 19:13 51.28855 6.77540 117 ft 13 kts 56°
2026-05-04 19:13 51.28906 6.77652 114 ft 12 kts 54°
2026-05-04 19:14 51.28954 6.77752 116 ft 13 kts 51°
2026-05-04 19:14 51.29024 6.77910 116 ft 15 kts 54°
2026-05-04 19:14 51.29104 6.78067 118 ft 26 kts 49°
2026-05-04 19:14 51.29175 6.78212 118 ft 15 kts 55°
2026-05-04 19:15 51.29258 6.78402 117 ft 24 kts 53°
2026-05-04 19:15 51.29343 6.78557 116 ft 14 kts 38°
2026-05-04 19:15 51.29432 6.78571 115 ft 12 kts 353°
2026-05-04 19:15 51.29439 6.78570 116 ft 0 kts 353°
2026-05-04 19:20 51.29467 6.78565 118 ft 14 kts 353°
2026-05-04 19:20 51.29539 6.78504 117 ft 5 kts 219°
2026-05-04 19:20 51.29535 6.78498 117 ft 0 kts 229°
2026-05-04 19:20 51.29534 6.78495 117 ft 1 kts 229°
2026-05-04 19:21 51.29530 6.78488 117 ft 2 kts 229°
2026-05-04 19:21 51.29458 6.78338 118 ft 47 kts 232°
2026-05-04 19:21 51.29109 6.77615 116 ft 114 kts 233°
2026-05-04 19:21 51.28512 6.76384 194 ft 158 kts 234°
2026-05-04 19:22 51.27874 6.75000 877 ft 154 kts 231°
2026-05-04 19:22 51.27247 6.73604 1524 ft 158 kts 230°
2026-05-04 19:22 51.26768 6.71877 1825 ft 186 kts 265°
2026-05-04 19:22 51.27169 6.69866 2386 ft 202 kts 307°
2026-05-04 19:23 51.28374 6.68714 3071 ft 208 kts 343°
2026-05-04 19:23 51.29826 6.68559 3699 ft 215 kts
2026-05-04 19:23 51.31390 6.68746 4025 ft 238 kts
2026-05-04 19:23 51.33127 6.68949 4416 ft 262 kts
2026-05-04 19:24 51.34997 6.69158 5131 ft 273 kts
2026-05-04 19:24 51.36908 6.69365 6034 ft 277 kts
2026-05-04 19:24 51.38855 6.69568 6930 ft 281 kts
2026-05-04 19:24 51.40818 6.69665 7825 ft 283 kts
2026-05-04 19:25 51.42799 6.69677 8717 ft 287 kts
2026-05-04 19:25 51.44805 6.69657 9618 ft 289 kts
2026-05-04 19:25 51.46836 6.69635 10307 ft 300 kts
2026-05-04 19:25 51.49002 6.69618 10567 ft 323 kts
2026-05-04 19:26 51.51325 6.69605 10927 ft 341 kts
2026-05-04 19:26 51.53726 6.69601 11591 ft 348 kts
2026-05-04 19:26 51.56166 6.69606 12326 ft 353 kts
2026-05-04 19:26 51.58619 6.69924 13040 ft 357 kts 12°
2026-05-04 19:27 51.60959 6.71118 13758 ft 360 kts 25°
2026-05-04 19:27 51.63113 6.73180 14425 ft 362 kts 38°
2026-05-04 19:27 51.64926 6.75992 15093 ft 364 kts 52°
2026-05-04 19:27 51.66458 6.79278 15667 ft 369 kts 55°
2026-05-04 19:28 51.68004 6.82646 16177 ft 377 kts 55°
2026-05-04 19:28 51.69569 6.86063 16776 ft 382 kts 55°
2026-05-04 19:28 51.71155 6.89530 17378 ft 386 kts 55°
2026-05-04 19:28 51.72760 6.93034 17990 ft 391 kts 55°
2026-05-04 19:29 51.74389 6.96586 18558 ft 395 kts 55°
2026-05-04 19:29 51.76031 7.00170 19090 ft 399 kts 55°
2026-05-04 19:29 51.77686 7.03791 19622 ft 403 kts 55°
2026-05-04 19:29 51.79359 7.07457 20153 ft 407 kts 55°
2026-05-04 19:30 51.81042 7.11156 20694 ft 411 kts 55°
2026-05-04 19:30 51.82740 7.14900 21222 ft 415 kts 55°
2026-05-04 19:30 51.84452 7.18683 21745 ft 419 kts 55°
2026-05-04 19:30 51.86300 7.22356 22243 ft 424 kts 47°
2026-05-04 19:31 51.88353 7.25812 22734 ft 428 kts 47°
2026-05-04 19:31 51.90406 7.29269 23214 ft 431 kts 47°
2026-05-04 19:31 51.92504 7.32809 23662 ft 435 kts 47°
2026-05-04 19:31 51.94625 7.36394 23898 ft 439 kts 46°
2026-05-04 19:32 51.96715 7.39940 23959 ft 441 kts 46°
2026-05-04 19:32 51.98832 7.43539 23968 ft 441 kts 47°
2026-05-04 19:32 52.00948 7.47140 23971 ft 441 kts 46°
2026-05-04 19:32 52.03066 7.50740 23971 ft 441 kts 46°
2026-05-04 19:33 52.05181 7.54340 23980 ft 441 kts 47°
2026-05-04 19:33 52.07299 7.57948 23974 ft 441 kts 47°
2026-05-04 19:33 52.09415 7.61562 23974 ft 442 kts 47°
2026-05-04 19:33 52.11538 7.65187 23971 ft 442 kts 47°
2026-05-04 19:34 52.13662 7.68792 23974 ft 442 kts 46°
2026-05-04 19:34 52.15796 7.72405 23978 ft 442 kts 46°
2026-05-04 19:34 52.17924 7.76007 23977 ft 442 kts 46°
2026-05-04 19:34 52.20056 7.79624 23970 ft 441 kts 46°
2026-05-04 19:35 52.22186 7.83246 23975 ft 442 kts 46°
2026-05-04 19:35 52.24313 7.86867 23976 ft 442 kts 47°
2026-05-04 19:35 52.26437 7.90490 23985 ft 441 kts 47°
2026-05-04 19:35 52.28598 7.94037 24181 ft 442 kts 40°
2026-05-04 19:36 52.31133 7.96783 24418 ft 445 kts 27°
2026-05-04 19:36 52.33895 7.99232 24661 ft 447 kts 27°
2026-05-04 19:36 52.36612 8.01618 24885 ft 449 kts 27°
2026-05-04 19:36 52.39371 8.04029 24964 ft 448 kts 27°
2026-05-04 19:37 52.42115 8.06431 24978 ft 447 kts 27°
2026-05-04 19:37 52.44855 8.08843 24980 ft 446 kts 27°
2026-05-04 19:37 52.47587 8.11264 24977 ft 446 kts 27°
2026-05-04 19:37 52.50317 8.13695 24992 ft 446 kts 27°
2026-05-04 19:38 52.53037 8.16121 24977 ft 445 kts 27°
2026-05-04 19:38 52.55760 8.18552 24984 ft 445 kts 27°
2026-05-04 19:38 52.58479 8.20980 24988 ft 444 kts 27°
2026-05-04 19:38 52.61194 8.23400 24793 ft 442 kts 27°
2026-05-04 19:39 52.63882 8.25794 24537 ft 438 kts 27°
2026-05-04 19:39 52.66553 8.28173 24276 ft 435 kts 27°
2026-05-04 19:39 52.69208 8.30542 24019 ft 433 kts 27°
2026-05-04 19:39 52.71849 8.32905 23776 ft 431 kts 27°
2026-05-04 19:40 52.74477 8.35265 23512 ft 429 kts 28°
2026-05-04 19:40 52.77092 8.37621 23212 ft 426 kts 28°
2026-05-04 19:40 52.79687 8.39958 22911 ft 424 kts 27°
2026-05-04 19:40 52.82268 8.42282 22611 ft 421 kts 27°
2026-05-04 19:41 52.84831 8.44597 22320 ft 418 kts 27°
2026-05-04 19:41 52.87381 8.46906 22029 ft 416 kts 27°
2026-05-04 19:41 52.89912 8.49198 21741 ft 413 kts 27°
2026-05-04 19:41 52.92429 8.51476 21455 ft 410 kts 27°
2026-05-04 19:42 52.94930 8.53744 21184 ft 408 kts 27°
2026-05-04 19:42 52.97399 8.56016 20903 ft 406 kts 30°
2026-05-04 19:42 52.99654 8.58834 20621 ft 406 kts 38°
2026-05-04 19:42 53.01811 8.61836 20350 ft 404 kts 39°
2026-05-04 19:43 53.03949 8.64840 20077 ft 401 kts 39°
2026-05-04 19:43 53.06071 8.67836 19805 ft 399 kts 39°
2026-05-04 19:43 53.08178 8.70827 19525 ft 397 kts 39°
2026-05-04 19:43 53.10270 8.73810 19263 ft 395 kts 39°
2026-05-04 19:44 53.12348 8.76787 19003 ft 393 kts 39°
2026-05-04 19:44 53.14410 8.79751 18742 ft 391 kts 39°
2026-05-04 19:44 53.16458 8.82708 18483 ft 388 kts 39°
2026-05-04 19:44 53.18491 8.85655 18216 ft 386 kts 39°
2026-05-04 19:45 53.20486 8.88555 17921 ft 384 kts 39°
2026-05-04 19:45 53.22525 8.91514 17630 ft 382 kts 38°
2026-05-04 19:45 53.24709 8.93959 17327 ft 376 kts 22°
2026-05-04 19:45 53.27076 8.95662 17029 ft 375 kts 20°
2026-05-04 19:46 53.29504 8.97368 16690 ft 373 kts 20°
2026-05-04 19:46 53.31894 8.99037 16355 ft 371 kts 20°
2026-05-04 19:46 53.34272 9.00693 16022 ft 370 kts 20°
2026-05-04 19:46 53.36609 9.02326 15699 ft 368 kts 20°
2026-05-04 19:47 53.38964 9.03974 15372 ft 366 kts 21°
2026-05-04 19:47 53.41343 9.05648 15056 ft 366 kts 20°
2026-05-04 19:47 53.43686 9.07301 14739 ft 365 kts 20°
2026-05-04 19:47 53.46022 9.08949 14425 ft 364 kts 20°
2026-05-04 19:48 53.48352 9.10590 14114 ft 362 kts 20°
2026-05-04 19:48 53.50670 9.12220 13806 ft 360 kts 21°
2026-05-04 19:48 53.52950 9.13828 13456 ft 359 kts 21°
2026-05-04 19:48 53.55247 9.15449 13120 ft 357 kts 21°
2026-05-04 19:49 53.57533 9.17064 12775 ft 355 kts 21°
2026-05-04 19:49 53.59803 9.18676 12427 ft 353 kts 21°
2026-05-04 19:49 53.62061 9.20285 12093 ft 351 kts 21°
2026-05-04 19:49 53.64311 9.21887 11776 ft 350 kts 20°
2026-05-04 19:50 53.66549 9.23480 11449 ft 349 kts 20°
2026-05-04 19:50 53.68781 9.25071 11121 ft 347 kts 20°
2026-05-04 19:50 53.71004 9.26661 10803 ft 346 kts 20°
2026-05-04 19:50 53.73213 9.28245 10486 ft 344 kts 20°
2026-05-04 19:51 53.74703 9.29314 10273 ft 343 kts 20°
2026-05-04 19:51 53.76894 9.30892 9967 ft 341 kts 21°
2026-05-04 19:51 53.78920 9.32917 9625 ft 336 kts 37°
2026-05-04 19:51 53.80555 9.35703 9274 ft 332 kts 52°
2026-05-04 19:52 53.81696 9.38987 8932 ft 326 kts 67°
2026-05-04 19:52 53.82336 9.42626 8600 ft 320 kts 79°
2026-05-04 19:52 53.82776 9.46273 8351 ft 311 kts 79°
2026-05-04 19:52 53.83203 9.49805 8195 ft 301 kts 79°
2026-05-04 19:53 53.83620 9.53255 8045 ft 298 kts 79°
2026-05-04 19:53 53.84032 9.56692 7891 ft 297 kts 79°
2026-05-04 19:53 53.84439 9.60110 7743 ft 296 kts 79°
2026-05-04 19:53 53.84846 9.63522 7587 ft 295 kts 79°
2026-05-04 19:54 53.85253 9.66939 7440 ft 294 kts 79°
2026-05-04 19:54 53.85657 9.70331 7309 ft 295 kts 79°
2026-05-04 19:54 53.86057 9.73695 7158 ft 285 kts 79°
2026-05-04 19:54 53.86442 9.76926 6991 ft 275 kts 79°
2026-05-04 19:55 53.86686 9.80086 6794 ft 267 kts 91°
2026-05-04 19:55 53.86520 9.83188 6598 ft 263 kts 99°
2026-05-04 19:55 53.86299 9.86251 6363 ft 262 kts 98°
2026-05-04 19:55 53.86085 9.89304 6102 ft 260 kts 98°
2026-05-04 19:56 53.85872 9.92337 5840 ft 258 kts 98°
2026-05-04 19:56 53.85660 9.95347 5589 ft 257 kts 98°
2026-05-04 19:56 53.85450 9.98310 5337 ft 255 kts 98°
2026-05-04 19:56 53.85235 10.01322 5082 ft 253 kts 98°
2026-05-04 19:57 53.85025 10.04236 4834 ft 252 kts 98°
2026-05-04 19:57 53.84813 10.07174 4577 ft 250 kts 98°
2026-05-04 19:57 53.84603 10.10092 4316 ft 249 kts 98°
2026-05-04 19:57 53.84392 10.13003 4078 ft 247 kts 98°
2026-05-04 19:58 53.84213 10.15884 3980 ft 246 kts 91°
2026-05-04 19:58 53.84415 10.18745 3991 ft 246 kts 74°
2026-05-04 19:58 53.85081 10.21399 3994 ft 245 kts 57°
2026-05-04 19:58 53.86118 10.23677 3993 ft 244 kts 48°
2026-05-04 19:59 53.87213 10.25883 3991 ft 244 kts 48°
2026-05-04 19:59 53.88218 10.28246 3985 ft 253 kts 65°
2026-05-04 19:59 53.88523 10.31142 3987 ft 256 kts 96°
2026-05-04 19:59 53.87940 10.33941 3985 ft 253 kts 128°
2026-05-04 20:00 53.86632 10.35838 3983 ft 247 kts 159°
2026-05-04 20:00 53.84986 10.36319 3984 ft 239 kts 190°
2026-05-04 20:00 53.83337 10.35541 3990 ft 254 kts 203°
2026-05-04 20:00 53.81706 10.34472 3993 ft 244 kts 204°
2026-05-04 20:01 53.80207 10.33375 3993 ft 226 kts 215°
2026-05-04 20:01 53.79119 10.31652 3991 ft 206 kts 231°
2026-05-04 20:01 53.78244 10.29849 4017 ft 189 kts 232°
2026-05-04 20:01 53.77448 10.28210 3998 ft 173 kts 232°
2026-05-04 20:02 53.76720 10.26716 3960 ft 157 kts 232°
2026-05-04 20:02 53.76046 10.25333 3837 ft 147 kts 232°
2026-05-04 20:02 53.75413 10.24038 3671 ft 140 kts 232°
2026-05-04 20:02 53.74803 10.22789 3529 ft 136 kts 232°
2026-05-04 20:03 53.74204 10.21563 3342 ft 135 kts 233°
2026-05-04 20:03 53.73608 10.20343 3158 ft 135 kts 233°
2026-05-04 20:03 53.73009 10.19120 2975 ft 135 kts 233°
2026-05-04 20:03 53.72411 10.17898 2793 ft 135 kts 233°
2026-05-04 20:04 53.71819 10.16688 2615 ft 136 kts 232°
2026-05-04 20:04 53.71217 10.15460 2435 ft 135 kts 233°
2026-05-04 20:04 53.70615 10.14233 2248 ft 136 kts 233°
2026-05-04 20:04 53.70008 10.12996 2057 ft 138 kts 233°
2026-05-04 20:05 53.69396 10.11747 1874 ft 139 kts 233°
2026-05-04 20:05 53.68774 10.10481 1688 ft 140 kts 232°
2026-05-04 20:05 53.68152 10.09216 1491 ft 140 kts 233°
2026-05-04 20:05 53.67530 10.07950 1308 ft 141 kts 232°
2026-05-04 20:06 53.66908 10.06685 1116 ft 140 kts 233°
2026-05-04 20:06 53.66289 10.05427 927 ft 139 kts 233°
2026-05-04 20:06 53.65680 10.04165 739 ft 139 kts 232°
2026-05-04 20:06 53.65059 10.02926 525 ft 137 kts 233°
2026-05-04 20:07 53.64453 10.01678 338 ft 137 kts 235°
2026-05-04 20:07 53.63833 10.00462 210 ft 137 kts 234°
2026-05-04 20:07 53.63247 9.99236 54 ft 123 kts 232°
2026-05-04 20:07 53.62813 9.98360 50 ft 66 kts 229°
2026-05-04 20:08 53.62608 9.97958 48 ft 27 kts 229°
2026-05-04 20:08 53.62483 9.97785 47 ft 20 kts 171°
2026-05-04 20:08 53.62428 9.97871 50 ft 5 kts 114°
2026-05-04 20:08 53.62425 9.97924 50 ft 7 kts 83°
2026-05-04 20:09 53.62452 9.98061 48 ft 13 kts 68°
2026-05-04 20:09 53.62502 9.98176 50 ft 12 kts 50°
2026-05-04 20:09 53.62556 9.98282 50 ft 14 kts 50°
2026-05-04 20:09 53.62637 9.98446 51 ft 22 kts 52°
2026-05-04 20:10 53.62736 9.98649 50 ft 22 kts 49°
2026-05-04 20:10 53.62811 9.98800 50 ft 14 kts 51°
2026-05-04 20:10 53.62875 9.98931 50 ft 15 kts 49°
2026-05-04 20:10 53.62961 9.99103 50 ft 18 kts 50°
2026-05-04 20:11 53.63046 9.99277 50 ft 20 kts 54°
2026-05-04 20:11 53.63131 9.99483 50 ft 23 kts 55°
2026-05-04 20:11 53.63214 9.99663 50 ft 8 kts 50°
2026-05-04 20:11 53.63217 9.99764 50 ft 14 kts 123°
2026-05-04 20:12 53.63119 9.99850 50 ft 15 kts 153°
2026-05-04 20:12 53.63030 9.99927 50 ft 14 kts 153°
2026-05-04 20:12 53.62956 9.99992 50 ft 9 kts 152°
2026-05-04 20:12 53.62908 10.00053 50 ft 8 kts 119°
2026-05-04 20:13 53.62928 10.00120 51 ft 6 kts 30°
2026-05-04 20:13 53.62962 10.00151 51 ft 6 kts 28°
2026-05-04 20:13 53.63026 10.00215 51 ft 12 kts 32°
2026-05-04 20:13 53.63089 10.00260 51 ft 9 kts
2026-05-04 20:14 53.63148 10.00256 51 ft 8 kts 355°
2026-05-04 20:14 53.63201 10.00247 51 ft 7 kts 355°
2026-05-04 20:14 53.63243 10.00261 51 ft 5 kts 57°
2026-05-04 20:14 53.63245 10.00313 51 ft 2 kts 88°
2026-05-04 20:15 53.63246 10.00333 51 ft 1 kts 88°
2026-05-04 20:15 53.63246 10.00346 51 ft 1 kts 87°
2026-05-04 20:15 53.63247 10.00352 51 ft 1 kts 87°
2026-05-04 20:15 53.63247 10.00358 51 ft 1 kts 87°
2026-05-04 20:16 53.63247 10.00361 51 ft 0 kts 87°